User: anonymous   Login
Location: Unspecified
(42.0334°N, 93.6656°W)
Time: 09:53:43
(UTC-06:00)
Language:

Iridium 63 - Orbit

View from above orbital plane
View from above orbital plane
View from above satellite
View from above satellite

Ground track
Ground track

The orbit data is extracted from the following two-line orbital elements,

1 25286U 98021B   16039.57666027  .00000235  00000-0  76488-4 0  9998
2 25286  86.3955  71.0668 0001964  91.5884  19.8071 14.34556955934137
Epoch (UTC): 08 February 2016 13:50:23
Eccentricity: 0.0001964
inclination: 86.3955°
perigee height: 775 km
apogee height: 778 km
right ascension of ascending node: 71.0668°
argument of perigee: 91.5884°
revolutions per day: 14.34556955
mean anomaly at epoch: 19.8071°
orbit number at epoch: 93413

The dashed part of the orbit path shows where the satellite is in the earth's shadow,  

DLR